EW8576 Weather Reports


Display with metric or nautical units.
time (UTC)temp
F
wind
direction
speed
MPH
gust
MPH
rain 1hr
in
rain 24hr
in
rain mn
in
humidity
%
barometer
mb
20260502194049 57 43 0.0 1.0 0.00 0.00 0.00 46 1008.3
20260502193802 56 154 0.0 1.0 0.00 0.00 0.00 46 1008.4
20260502193036 56 154 0.0 4.0 0.00 0.00 0.00 46 1008.6
20260502192530 56 157 0.0 4.0 0.00 0.00 0.00 46 1008.5
20260502192025 56 157 0.0 0.0 0.00 0.00 0.00 45 1008.7
20260502191738 56 157 0.0 4.0 0.00 0.00 0.00 44 1008.6
20260502191012 57 157 0.0 4.0 0.00 0.00 0.00 43 1008.7
20260502190506 57 164 0.0 1.0 0.00 0.00 0.00 44 1008.6
20260502190000 56 175 0.0 0.0 0.00 0.00 0.00 41 1008.7
20260502185454 56 175 0.0 0.0 0.00 0.00 0.00 43 1008.9
20260502184947 56 175 0.0 0.0 0.00 0.00 0.00 43 1008.9
20260502184441 56 175 0.0 1.0 0.00 0.00 0.00 44 1008.9
20260502183936 56 174 0.0 1.0 0.00 0.00 0.00 42 1008.9
20260502183430 56 159 0.0 6.0 0.00 0.00 0.00 42 1008.9
20260502182924 56 159 0.0 6.0 0.00 0.00 0.00 40 1008.9
20260502182418 56 165 0.0 4.0 0.00 0.00 0.00 41 1008.9
20260502182134 55 190 0.0 0.0 0.00 0.00 0.00 42 1008.9
20260502181406 55 190 0.0 2.0 0.00 0.00 0.00 39 1008.9
20260502180900 55 202 0.0 2.0 0.00 0.00 0.00 39 1008.8
20260502180353 55 203 0.0 1.0 0.00 0.00 0.00 37 1008.8
20260502170241 55 68 0.0 4.0 0.00 0.00 0.00 26 1009.4
20260502164217 55 67 0.0 2.0 0.00 0.00 0.00 43 1009.5
20260502163931 55 67 0.0 2.0 0.00 0.00 0.00 43 1009.6
20260502163207 55 0 0.0 2.0 0.00 0.00 0.00 43 1009.7
20260502162659 54 355 0.0 1.0 0.00 0.00 0.00 43 1009.8
20260502162418 54 89 0.0 0.0 0.00 0.00 0.00 41 1009.8
20260502161648 54 32 0.0 2.0 0.00 0.00 0.00 41 1009.8
20260502161142 54 46 0.0 2.0 0.00 0.00 0.00 41 1009.9
20260502160635 54 312 0.0 5.0 0.00 0.00 0.00 42 1009.9
20260502160130 54 319 0.0 5.0 0.00 0.00 0.00 39 1010.0
20260502152116 50 0 0.0 2.0 0.00 0.00 0.00 1 1010.3
20260502151616 49 57 0.0 2.0 0.00 0.00 0.00 1 1010.5
20260502151114 49 58 0.0 2.0 0.00 0.00 0.00 1 1010.4
20260502150614 49 0 0.0 0.0 0.00 0.00 0.00 1 1010.5
20260502150114 49 53 0.0 0.0 0.00 0.00 0.00 1 1010.5
20260502130558 49 274 0.0 0.0 0.00 0.00 0.00 1 1010.3
20260502130322 49 274 0.0 0.0 0.00 0.00 0.00 1 1010.3
20260502123554 48 274 0.0 0.0 0.00 0.00 0.00 1 1010.2
20260502123054 48 274 0.0 0.0 0.00 0.00 0.00 1 1010.2
20260502122554 48 274 0.0 0.0 0.00 0.00 0.00 1 1010.1
20260502122053 48 274 0.0 0.0 0.00 0.00 0.00 1 1010.1
20260502121553 48 274 0.0 0.0 0.00 0.00 0.00 1 1010.0
20260502121054 48 274 0.0 0.0 0.00 0.00 0.00 1 1010.0
20260502120554 48 273 0.0 0.0 0.00 0.00 0.00 1 1010.1
20260502115547 48 0 0.0 0.0 0.00 0.00 0.00 1 1010.0
20260502115048 48 272 0.0 0.0 0.00 0.00 0.00 1 1010.1
20260502114548 48 0 0.0 0.0 0.00 0.00 0.00 1 1010.1
20260502114047 47 274 0.0 0.0 0.00 0.00 0.00 1 1010.2
20260502113546 47 274 0.0 0.0 0.00 0.00 0.00 1 1010.1
20260502113046 47 274 0.0 0.0 0.00 0.00 0.00 1 1010.0
20260502112544 47 274 0.0 0.0 0.00 0.00 0.00 1 1010.0
20260502112044 47 274 0.0 0.0 0.00 0.00 0.00 1 1010.0
20260502111543 47 274 0.0 0.0 0.00 0.00 0.00 1 1009.9
20260502111043 47 274 0.0 0.0 0.00 0.00 0.00 1 1009.8
20260502110541 47 274 0.0 0.0 0.00 0.00 0.00 1 1009.7
20260502110039 47 274 0.0 0.0 0.00 0.00 0.00 1 1009.6
20260502105538 47 274 0.0 0.0 0.00 0.00 0.00 1 1009.6
20260502105033 47 274 0.0 0.0 0.00 0.00 0.00 1 1009.6
20260502104754 47 274 0.0 0.0 0.00 0.00 0.00 1 1009.6
20260502104020 47 274 0.0 0.0 0.00 0.00 0.00 1 1009.6
20260502103515 46 274 0.0 0.0 0.00 0.00 0.00 1 1009.6
20260502103230 46 274 0.0 0.0 0.00 0.00 0.00 1 1009.7
20260502102504 46 274 0.0 0.0 0.00 0.00 0.00 1 1009.6
20260502102004 46 274 0.0 0.0 0.00 0.00 0.00 1 1009.5
20260502101501 46 274 0.0 0.0 0.00 0.00 0.00 1 1009.5
20260502100959 47 274 0.0 0.0 0.00 0.00 0.00 1 1009.5
20260502100457 47 274 0.0 0.0 0.00 0.00 0.00 1 1009.5
20260502091446 47 274 0.0 0.0 0.00 0.00 0.00 1 1009.1
20260502090943 47 274 0.0 0.0 0.00 0.00 0.00 1 1009.2
20260502090441 47 274 0.0 0.0 0.00 0.00 0.00 1 1009.3
20260502071247 48 276 0.0 0.0 0.00 0.00 0.00 1 1009.7
20260502071224 48 276 0.0 0.0 0.00 0.00 0.00 1 1009.7
20260502070235 48 276 0.0 0.0 0.00 0.00 0.00 1 1009.9
20260502065729 48 276 0.0 0.0 0.00 0.00 0.00 1 1010.0
20260502065223 48 276 0.0 0.0 0.00 0.00 0.00 1 1010.0
20260502064717 48 276 0.0 4.0 0.00 0.00 0.00 1 1010.1
20260502064211 49 276 0.0 4.0 0.00 0.00 0.00 1 1010.2
20260502063705 49 279 0.0 0.0 0.00 0.00 0.00 1 1010.2
20260502063159 49 279 0.0 0.0 0.00 0.00 0.00 1 1010.2
20260502062654 49 279 0.0 0.0 0.00 0.00 0.00 1 1010.3
20260502062408 49 279 0.0 0.0 0.00 0.00 0.00 1 1010.2
20260502061640 49 279 0.0 0.0 0.00 0.00 0.00 1 1009.9
20260502061134 49 279 0.0 0.0 0.00 0.00 0.00 1 1009.8
20260502060629 49 279 0.0 0.0 0.00 0.00 0.00 1 1009.8
20260502060123 49 279 0.0 0.0 0.00 0.00 0.00 1 1009.8
20260502055617 49 279 0.0 0.0 0.00 0.00 0.00 1 1009.8
20260502055556 49 279 0.0 0.0 0.00 0.00 0.00 1 1009.8
20260502054611 49 279 0.0 0.0 0.00 0.00 0.00 1 1009.9
20260502054109 49 279 0.0 0.0 0.00 0.00 0.00 1 1009.9
20260502053607 49 279 0.0 1.0 0.00 0.00 0.00 1 1010.1
20260502053105 49 279 0.0 1.0 0.00 0.00 0.00 1 1009.9
20260502052604 49 279 0.0 0.0 0.00 0.00 0.00 1 1009.8
20260502052101 49 279 0.0 0.0 0.00 0.00 0.00 1 1009.7
20260502051559 49 279 0.0 0.0 0.00 0.00 0.00 1 1009.7
20260502051057 49 279 0.0 0.0 0.00 0.00 0.00 1 1009.7
20260502050555 49 278 0.0 2.0 0.00 0.00 0.00 1 1010.0
20260502050053 49 278 0.0 2.0 0.00 0.00 0.00 1 1010.1
20260502045552 49 279 0.0 0.0 0.00 0.00 0.00 1 1010.0
20260502045051 49 279 0.0 0.0 0.00 0.00 0.00 1 1009.6
20260502044551 50 279 0.0 0.0 0.00 0.00 0.00 1 1009.6
20260502044051 50 279 0.0 0.0 0.00 0.00 0.00 1 1009.6
20260502043548 51 279 0.0 0.0 0.00 0.00 0.00 1 1009.4
20260502043050 51 279 0.0 0.0 0.00 0.00 0.00 8 1009.5
20260502042812 51 279 0.0 0.0 0.00 0.00 0.00 21 1009.6
20260502042047 52 279 0.0 0.0 0.00 0.00 0.00 25 1009.7
20260502041547 52 279 0.0 0.0 0.00 0.00 0.00 25 1009.6
20260502041041 52 279 0.0 2.0 0.00 0.00 0.00 29 1009.5
20260502040534 52 279 0.0 2.0 0.00 0.00 0.00 31 1009.4
20260502040300 52 278 0.0 0.0 0.00 0.00 0.00 30 1009.6
20260502035535 52 278 0.0 4.0 0.00 0.00 0.00 33 1009.6
20260502035523 52 278 0.0 4.0 0.00 0.00 0.00 33 1009.6
20260502034533 51 277 0.0 0.0 0.00 0.00 0.00 27 1009.6
20260502034033 51 277 0.0 0.0 0.00 0.00 0.00 10 1009.6
20260502033532 51 279 0.0 0.0 0.00 0.00 0.00 1 1009.8
20260502033033 51 279 0.0 0.0 0.00 0.00 0.00 1 1009.8
20260502032533 51 279 0.0 0.0 0.00 0.00 0.00 1 1009.6
20260502032033 51 279 0.0 0.0 0.00 0.00 0.00 1 1009.6
20260502031533 51 279 0.0 0.0 0.00 0.00 0.00 1 1009.6
20260502031251 51 279 0.0 0.0 0.00 0.00 0.00 1 1009.6
20260502030533 51 279 0.0 0.0 0.00 0.00 0.00 1 1009.7
20260502030032 51 279 0.0 0.0 0.00 0.00 0.00 1 1009.7
20260502025532 51 279 0.0 0.0 0.00 0.00 0.00 1 1009.6
20260502025032 51 279 0.0 0.0 0.00 0.00 0.00 9 1009.6
20260502024533 51 279 0.0 0.0 0.00 0.00 0.00 15 1009.5
20260502024033 51 279 0.0 0.0 0.00 0.00 0.00 4 1009.6
20260502023533 51 279 0.0 0.0 0.00 0.00 0.00 5 1009.6
20260502023033 51 279 0.0 0.0 0.00 0.00 0.00 1 1009.6
20260502022533 51 279 0.0 0.0 0.00 0.00 0.00 6 1009.6
20260502022032 51 279 0.0 0.0 0.00 0.00 0.00 5 1009.5
20260502021532 51 279 0.0 0.0 0.00 0.00 0.00 10 1009.4
20260502021028 51 279 0.0 0.0 0.00 0.00 0.00 14 1009.5
20260502020528 51 279 0.0 0.0 0.00 0.00 0.00 13 1009.5
20260502020029 51 279 0.0 0.0 0.00 0.00 0.00 15 1009.5
20260502015529 51 278 0.0 0.0 0.00 0.00 0.00 23 1009.4
20260502015028 52 0 0.0 0.0 0.00 0.00 0.00 25 1009.3
20260502014528 52 0 0.0 0.0 0.00 0.00 0.00 22 1009.4
20260502014028 52 277 0.0 0.0 0.00 0.00 0.00 15 1009.5
20260502013529 52 278 0.0 0.0 0.00 0.00 0.00 23 1009.4
20260502013029 52 277 0.0 0.0 0.00 0.00 0.00 32 1009.5
20260502012526 52 277 0.0 0.0 0.00 0.00 0.00 34 1009.5
20260502012025 52 277 0.0 0.0 0.00 0.00 0.00 30 1009.4
20260502011524 52 0 0.0 0.0 0.00 0.00 0.00 28 1009.4
20260502011024 52 0 0.0 0.0 0.00 0.00 0.00 37 1009.3
20260502010524 53 0 0.0 0.0 0.00 0.00 0.00 42 1009.5
20260502010025 53 0 0.0 0.0 0.00 0.00 0.00 39 1009.5
20260502005525 53 279 0.0 0.0 0.00 0.00 0.00 46 1009.6
20260502005025 53 279 0.0 0.0 0.00 0.00 0.00 50 1009.4
20260502004524 54 277 0.0 0.0 0.00 0.00 0.00 53 1009.4
20260502004020 54 277 0.0 0.0 0.00 0.00 0.00 53 1009.3
20260502003520 55 279 0.0 0.0 0.00 0.00 0.00 54 1009.2
20260502003020 55 279 0.0 0.0 0.00 0.00 0.00 54 1009.2
20260502002741 56 279 0.0 0.0 0.00 0.00 0.00 52 1009.1
20260502002239 56 279 0.0 0.0 0.00 0.00 0.00 51 1008.9
20260502001516 57 279 0.0 0.0 0.00 0.00 0.00 50 1008.9
20260502001016 57 279 0.0 0.0 0.00 0.00 0.00 49 1008.8
20260502000516 57 279 0.0 2.0 0.00 0.00 0.00 50 1008.8
20260502000014 57 279 0.0 2.0 0.00 0.00 0.00 48 1008.7
20260501235514 57 251 0.0 0.0 0.00 0.00 0.00 48 1008.7
20260501235013 58 250 0.0 6.0 0.00 0.00 0.00 48 1008.7
20260501234509 58 278 0.0 6.0 0.00 0.00 0.00 48 1008.7
20260501234009 58 308 0.0 4.0 0.00 0.00 0.00 47 1008.6
20260501233727 58 309 0.0 10.0 0.00 0.00 0.00 48 1008.6
20260501233006 58 271 0.0 10.0 0.00 0.00 0.00 47 1008.6
20260501232501 58 263 0.0 1.0 0.00 0.00 0.00 46 1008.5
20260501231954 59 263 0.0 1.0 0.00 0.00 0.00 46 1008.4
20260501231448 59 306 0.0 7.0 0.00 0.00 0.00 45 1008.3
20260501230941 60 288 0.0 9.0 0.00 0.00 0.00 44 1008.2
20260501230436 60 355 0.0 9.0 0.00 0.00 0.00 43 1008.1
20260501225930 60 277 0.0 7.0 0.00 0.00 0.00 43 1007.9
20260501225423 60 261 0.0 8.0 0.00 0.00 0.00 42 1007.9
20260501224918 60 246 0.0 8.0 0.00 0.00 0.00 41 1007.9
20260501224412 60 287 0.0 5.0 0.00 0.00 0.00 41 1007.8
20260501223906 61 281 0.0 6.0 0.00 0.00 0.00 41 1007.7
20260501223618 61 289 0.0 7.0 0.00 0.00 0.00 40 1007.7
20260501222854 61 271 0.0 7.0 0.00 0.00 0.00 40 1007.6
20260501222348 61 263 0.0 7.0 0.00 0.00 0.00 39 1007.6
20260501221841 61 246 0.0 5.0 0.00 0.00 0.00 39 1007.6
20260501221336 61 257 0.0 5.0 0.00 0.00 0.00 38 1007.6
20260501220830 61 259 0.0 6.0 0.00 0.00 0.00 39 1007.6
20260501220324 62 281 0.0 6.0 0.00 0.00 0.00 39 1007.4
20260501215817 62 272 0.0 2.0 0.00 0.00 0.00 38 1007.3
20260501215536 62 285 0.0 2.0 0.00 0.00 0.00 39 1007.3
20260501214805 62 279 0.0 2.0 0.00 0.00 0.00 38 1007.2
20260501214259 62 276 0.0 4.0 0.00 0.00 0.00 38 1007.2
20260501213754 62 296 0.0 4.0 0.00 0.00 0.00 38 1007.2
20260501213248 63 275 0.0 4.0 0.00 0.00 0.00 39 1007.1
20260501212742 63 242 0.0 4.0 0.00 0.00 0.00 36 1007.0
20260501212237 63 252 0.0 1.0 0.00 0.00 0.00 38 1007.0
20260501211730 63 295 0.0 2.0 0.00 0.00 0.00 38 1006.9
20260501211223 63 300 1.0 10.0 0.00 0.00 0.00 37 1007.0
20260501210718 63 290 1.0 10.0 0.00 0.00 0.00 35 1007.0
20260501210212 64 220 0.0 6.0 0.00 0.00 0.00 37 1006.8
20260501205706 64 248 0.0 5.0 0.00 0.00 0.00 38 1006.9
20260501205200 63 245 0.0 8.0 0.00 0.00 0.00 37 1006.9
20260501204654 63 280 0.0 8.0 0.00 0.00 0.00 37 1007.0
20260501204147 64 281 0.0 2.0 0.00 0.00 0.00 36 1007.0
20260501203642 64 316 1.0 11.0 0.00 0.00 0.00 35 1007.0
20260501203136 65 267 2.0 12.0 0.00 0.00 0.00 33 1006.9
20260501202630 65 283 1.0 12.0 0.00 0.00 0.00 36 1006.9
20260501202352 65 239 0.0 4.0 0.00 0.00 0.00 36 1006.9
20260501201618 64 248 1.0 9.0 0.00 0.00 0.00 35 1006.9
20260501201111 64 240 1.0 9.0 0.00 0.00 0.00 34 1007.1
20260501200605 64 249 0.0 6.0 0.00 0.00 0.00 34 1007.0
20260501200100 65 237 0.0 11.0 0.00 0.00 0.00 35 1007.0
20260501195554 64 241 1.0 11.0 0.00 0.00 0.00 35 1007.0
20260501195048 65 183 0.0 9.0 0.00 0.00 0.00 34 1006.9